Regional Weather Roundup
Issued by NWS

Home | Current Version | Previous Version | Text Only | Print | Product List | Glossary Off
Versions: 1 2 3 4 5 6 7 8 9 10 11 12 13 14 15 16 17 18 19 20 21 22 23 24 25 26 27 28 29 30 31 32 33 34 35 36 37 38 39 40 41 42 43 44 45 46 47 48 49 50

375
ASUS45 KPSR 112210
RWRAZ

ARIZONA HOURLY REGIONAL WEATHER ROUNDUP
NATIONAL WEATHER SERVICE PHOENIX AZ
300 PM MST MON DEC 11 2017

NOTE: FAIR INDICATES FEW OR NO CLOUDS BELOW 12,000 FEET WITH NO
SIGNIFICANT WEATHER AND/OR OBSTRUCTIONS TO VISIBILITY.

AZZ001>003-036-112300-
NORTHWEST ARIZONA

CITY           SKY/WX    TMP DP  RH WIND       PRES   REMARKS
BULLHEAD CITY  MOSUNNY   68   1   7 N20G32    30.23S
KINGMAN        MOSUNNY   62   2   9 NE9       30.31F
$$

AZZ004>008-015-016-018-112300-
NORTH CENTRAL ARIZONA

CITY           SKY/WX    TMP DP  RH WIND       PRES   REMARKS
GRAND CANYON   SUNNY     54 -28   3 E13       30.44S
WILLIAMS       MOSUNNY   55  -9   7 N5        30.38S
PRESCOTT       PTSUNNY   56  -6   8 N6        30.34F
FLAGSTAFF      MOSUNNY   44  -6  12 E8        30.43S
PAYSON         MOSUNNY   61  -4   7 SW7       30.32S
PAGE           SUNNY     47  15  27 CALM      30.44F
$$

AZZ009>014-017-112300-
NORTHEAST ARIZONA

CITY           SKY/WX    TMP DP  RH WIND       PRES   REMARKS
WINSLOW        MOSUNNY   44   0  16 NW3       30.44F
SAINT JOHNS    PTSUNNY   43   1  17 W6        30.40F
WINDOW ROCK    SUNNY     55  -5   8 VRB5      30.40F
SHOW LOW       PTSUNNY   41   1  19 N12       30.43R
$$

AZZ540-542>544-546-548-112300-
GREATER PHOENIX AREA

CITY           SKY/WX    TMP DP  RH WIND       PRES   REMARKS
PHOENIX        PTSUNNY   74   7   7 CALM      30.16F
BUCKEYE        MOSUNNY   75  59  57 E6        30.17F
GLENDALE       PTSUNNY   75   3   6 CALM      30.18F
LUKE AFB       PTSUNNY   75   7   7 CALM      30.15F
DEER VALLEY    MOSUNNY   76   2   5 S7        30.17S
SCOTTSDALE     MOSUNNY   76  14   9 S3        30.18F
MESA-FALCON    PTSUNNY   75  10   8 VRB3      30.18
MESA-GATEWAY   PTSUNNY   75  12   9 W5        30.18F
CHANDLER       SUNNY     75  10   8 CALM      30.17F
$$

AZZ539-553-112300-
SOUTHWEST MARICOPA COUNTY AND PINAL COUNTY

CITY           SKY/WX    TMP DP  RH WIND       PRES   REMARKS
CASA GRANDE    NOT AVBL
GILA BEND      PTSUNNY   77  14   9 NE7       30.14S
$$

AZZ503-504-507>509-112300-
SOUTHEAST ARIZONA

CITY           SKY/WX    TMP DP  RH WIND       PRES   REMARKS
TUCSON         CLOUDY    73  18  12 SE6       30.22S
DAVIS-MONTHAN  PTSUNNY   73  19  13 SE8       30.20S
RYAN FIELD     SUNNY     73  19  13 E8        30.21S
NOGALES        PTSUNNY   68  12  11 CALM      30.23F
SIERRA VISTA   PTSUNNY   60  17  18 E8        30.30F
DOUGLAS        CLOUDY    57  20  23 CALM      30.30S
SAFFORD        MOSUNNY   64  12  13 SE6       30.26F
$$

AZZ532-112300-
SOUTHWEST ARIZONA

CITY           SKY/WX    TMP DP  RH WIND       PRES   REMARKS
YUMA           MOSUNNY   79   7   6 N12       30.15F
$$

CAZ041-043-047-048-061-525>527-560>570-112300-
SOUTHERN CALIFORNIA

CITY           SKY/WX    TMP DP  RH WIND       PRES   REMARKS
DOWNTOWN L.A.  MOSUNNY   80  14   8 CALM      30.14F
L.A. AIRPORT   PTSUNNY   76  23  14 W7        30.16S
SAN DIEGO      MOSUNNY   79  15   9 NW9       30.15F
BURBANK        MOSUNNY   80   4   5 W6        30.16F
ONTARIO        PTSUNNY   81   4   5 SW3       30.17F
RIVERSIDE      MOSUNNY   81   4   5 NE7G16    30.17F
PALM SPRINGS   SUNNY     83  -3   3 VRB5      30.19F
EL CENTRO NAS  MOSUNNY   81  -3   4 NE7       30.18F
IMPERIAL       SUNNY     80   5   5 NW7       30.16F
BLYTHE         MOSUNNY   77   1   5 N13       30.20F
NEEDLES        PTSUNNY   72  -1   5 N21       30.25F
$$

NVZ020-UTZ003-112300-
SOUTHERN NEVADA-UTAH

CITY           SKY/WX    TMP DP  RH WIND       PRES   REMARKS
LAS VEGAS      MOSUNNY   65   0   7 CALM      30.32F
SALT LAKE CITY FOG       28  26  92 NW6       30.57F VSB 1/4 WCI  22
$$

NMZ009-TXZ055-112300-
NEW MEXICO-WEST TEXAS

CITY           SKY/WX    TMP DP  RH WIND       PRES   REMARKS
ALBUQUERQUE    CLOUDY    48   1  14 CALM      30.37F
EL PASO        PTSUNNY   59  23  25 S7        30.30S
$$


........................KEY........................
SKY/WX - SKY CONDITION/WEATHER
TMP    - TEMPERATURE IN FAHRENHEIT
DP     - DEW POINT IN FAHRENHEIT
RH     - RELATIVE HUMIDITY IN PERCENT
WIND   - DIRECTION AND SPEED IN MILES PER HOUR (MPH)
VRB    - VARIABLE WIND DIRECTION
PRES   - MEAN SEA LEVEL PRESSURE IN INCHES OF MERCURY
         F - FALLING PRESSURE   R - RISING PRESSURE
         S - STEADY PRESSURE
VSB    - VISIBILITY IN MILES
HX     - HEAT INDEX IN FAHRENHEIT
WCI    - WIND CHILL INDEX IN FAHRENHEIT
TC     - TEMPERATURE IN CELSIUS WHICH IS ALSO KNOWN AS
         TEMPERATURE IN CENTIGRADE
AFB    - AIR FORCE BASE
         LUKE AFB IS LUKE AIR FORCE BASE
         DAVIS-MONTHAN IS DAVIS-MONTHAN AIR FORCE BASE
NAS    - NAVAL AIR STATION
         EL CENTRO NAS IS EL CENTRO NAVAL AIR STATION
N/A    - NOT AVAILABLE





USA.gov is the U.S. government's official web portal to all federal, state and local government web resources and services.